Time,TemperatureF,DewpointF,PressureIn,WindDirection,WindDirectionDegrees,WindSpeedMPH,WindSpeedGustMPH,Humidity,HourlyPrecipIn,Conditions,Clouds,dailyrainin,SoftwareType,DateUTC
2013-03-19 00:03:00,28.0,27.0,30.10,ESE,120,6.0,-999.0,92,-99.99,,,-99.99,,2013-03-19 04:03:00,
2013-03-19 00:13:00,28.0,27.0,30.08,ESE,120,7.0,-999.0,92,-99.99,,,-99.99,,2013-03-19 04:13:00,
2013-03-19 00:23:00,28.0,27.0,30.07,East,100,3.0,-999.0,92,-99.99,,,-99.99,,2013-03-19 04:23:00,
2013-03-19 00:33:00,28.0,27.0,30.06,East,100,7.0,-999.0,92,-99.99,,,-99.99,,2013-03-19 04:33:00,
2013-03-19 00:43:00,28.0,27.0,30.05,East,100,6.0,-999.0,92,-99.99,,,-99.99,,2013-03-19 04:43:00,
2013-03-19 00:52:00,28.0,27.0,30.04,East,90,6.0,-999.0,92,-99.99,,,-99.99,,2013-03-19 04:52:00,
2013-03-19 01:02:00,28.0,27.0,30.04,East,90,6.0,-999.0,92,-99.99,,,-99.99,,2013-03-19 05:02:00,
2013-03-19 01:12:00,28.0,27.0,30.03,ESE,110,6.0,-999.0,92,-99.99,,,-99.99,,2013-03-19 05:12:00,
2013-03-19 01:22:00,28.0,27.0,30.03,ESE,120,5.0,-999.0,92,-99.99,,,-99.99,,2013-03-19 05:22:00,
2013-03-19 01:32:00,28.0,27.0,30.02,East,100,5.0,-999.0,92,-99.99,,,-99.99,,2013-03-19 05:32:00,
2013-03-19 01:43:00,28.0,27.0,30.01,ESE,110,6.0,-999.0,92,-99.99,,,-99.99,,2013-03-19 05:43:00,
2013-03-19 01:52:00,28.0,27.0,30.01,ESE,110,8.0,-999.0,92,-99.99,,,-99.99,,2013-03-19 05:52:00,
2013-03-19 02:02:00,28.0,27.0,30.01,ESE,110,8.0,-999.0,92,-99.99,,,-99.99,,2013-03-19 06:02:00,
2013-03-19 02:12:00,28.0,27.0,30.01,East,90,3.0,-999.0,92,-99.99,,,-99.99,,2013-03-19 06:12:00,
2013-03-19 02:22:00,28.0,27.0,29.99,East,100,5.0,-999.0,92,-99.99,,,-99.99,,2013-03-19 06:22:00,
2013-03-19 02:32:00,28.0,27.0,29.99,East,100,6.0,-999.0,92,-99.99,,,-99.99,,2013-03-19 06:32:00,
2013-03-19 02:42:00,28.0,27.0,29.99,East,90,5.0,-999.0,92,-99.99,,,-99.99,,2013-03-19 06:42:00,
2013-03-19 02:52:00,28.0,27.0,29.98,East,90,5.0,-999.0,92,-99.99,,,-99.99,,2013-03-19 06:52:00,
2013-03-19 03:02:00,28.0,27.0,29.98,East,90,5.0,-999.0,92,-99.99,,,-99.99,,2013-03-19 07:02:00,
2013-03-19 03:12:00,28.0,27.0,29.97,ESE,110,5.0,-999.0,92,-99.99,,,-99.99,,2013-03-19 07:12:00,
2013-03-19 03:22:00,28.0,27.0,29.96,East,100,3.0,-999.0,92,-99.99,,,-99.99,,2013-03-19 07:22:00,
2013-03-19 03:32:00,28.0,27.0,29.95,ESE,110,5.0,-999.0,92,-99.99,,,-99.99,,2013-03-19 07:32:00,
2013-03-19 03:42:00,28.0,27.0,29.95,North,0,0.0,-999.0,92,-99.99,,,-99.99,,2013-03-19 07:42:00,
2013-03-19 03:52:00,28.0,27.0,29.94,East,80,5.0,-999.0,92,-99.99,,,-99.99,,2013-03-19 07:52:00,
2013-03-19 04:03:00,28.0,27.0,29.94,East,80,5.0,-999.0,92,-99.99,,,-99.99,,2013-03-19 08:03:00,
2013-03-19 04:12:00,28.0,27.0,29.92,ENE,70,5.0,-999.0,92,-99.99,,,-99.99,,2013-03-19 08:12:00,
2013-03-19 04:22:00,28.0,27.0,29.92,ENE,70,5.0,-999.0,92,-99.99,,,-99.99,,2013-03-19 08:22:00,
2013-03-19 04:32:00,28.0,27.0,29.92,ENE,70,5.0,-999.0,92,-99.99,,,-99.99,,2013-03-19 08:32:00,
2013-03-19 04:42:00,28.0,27.0,29.91,ENE,70,5.0,-999.0,92,-99.99,,,-99.99,,2013-03-19 08:42:00,
2013-03-19 04:52:00,28.0,27.0,29.91,East,90,7.0,-999.0,92,-99.99,,,-99.99,,2013-03-19 08:52:00,
2013-03-19 05:02:00,28.0,27.0,29.91,East,90,7.0,-999.0,92,-99.99,,,-99.99,,2013-03-19 09:02:00,
2013-03-19 05:12:00,28.0,27.0,29.91,ENE,70,5.0,-999.0,92,-99.99,,,-99.99,,2013-03-19 09:12:00,
2013-03-19 05:22:00,28.0,27.0,29.91,East,90,3.0,-999.0,92,-99.99,,,-99.99,,2013-03-19 09:22:00,
2013-03-19 05:32:00,28.0,27.0,29.91,ENE,60,3.0,-999.0,92,-99.99,,,-99.99,,2013-03-19 09:32:00,
2013-03-19 05:43:00,28.0,27.0,29.91,East,80,3.0,-999.0,92,-99.99,,,-99.99,,2013-03-19 09:43:00,
2013-03-19 05:52:00,28.0,27.0,29.90,NE,50,6.0,-999.0,92,-99.99,,,-99.99,,2013-03-19 09:52:00,
2013-03-19 06:04:00,28.0,27.0,29.90,NE,50,6.0,-999.0,92,-99.99,,,-99.99,,2013-03-19 10:04:00,
2013-03-19 06:13:00,28.0,27.0,29.89,ENE,60,3.0,-999.0,92,-99.99,,,-99.99,,2013-03-19 10:13:00,
2013-03-19 06:23:00,28.0,27.0,29.88,NE,40,3.0,-999.0,92,-99.99,,,-99.99,,2013-03-19 10:23:00,
2013-03-19 06:32:00,28.0,27.0,29.88,NE,40,5.0,-999.0,92,-99.99,,,-99.99,,2013-03-19 10:32:00,
2013-03-19 06:42:00,28.0,27.0,29.88,NE,40,5.0,-999.0,92,-99.99,,,-99.99,,2013-03-19 10:42:00,
2013-03-19 06:52:00,28.0,27.0,29.87,NNE,30,6.0,-999.0,92,-99.99,,,-99.99,,2013-03-19 10:52:00,
2013-03-19 07:03:00,28.0,27.0,29.87,NNE,30,6.0,-999.0,92,-99.99,,,-99.99,,2013-03-19 11:03:00,
2013-03-19 07:12:00,28.0,27.0,29.87,NNE,30,5.0,-999.0,92,-99.99,,,-99.99,,2013-03-19 11:12:00,
2013-03-19 07:22:00,28.0,27.0,29.86,North,0,0.0,-999.0,92,-99.99,,,-99.99,,2013-03-19 11:22:00,
2013-03-19 07:33:00,28.0,27.0,29.86,North,0,0.0,-999.0,92,-99.99,,,-99.99,,2013-03-19 11:33:00,
2013-03-19 07:43:00,28.0,27.0,29.87,North,0,0.0,-999.0,92,-99.99,,,-99.99,,2013-03-19 11:43:00,
2013-03-19 07:52:00,28.0,27.0,29.86,North,0,0.0,-999.0,92,-99.99,,,-99.99,,2013-03-19 11:52:00,
2013-03-19 08:02:00,28.0,27.0,29.86,North,0,0.0,-999.0,92,-99.99,,,-99.99,,2013-03-19 12:02:00,
2013-03-19 08:12:00,28.0,27.0,29.84,North,0,0.0,-999.0,92,-99.99,,,-99.99,,2013-03-19 12:12:00,
2013-03-19 08:22:00,28.0,28.0,29.84,NNE,30,3.0,-999.0,100,-99.99,,,-99.99,,2013-03-19 12:22:00,
2013-03-19 08:33:00,28.0,28.0,29.84,North,0,0.0,-999.0,100,-99.99,,,-99.99,,2013-03-19 12:33:00,
2013-03-19 08:42:00,28.0,28.0,29.84,North,0,0.0,-999.0,100,-99.99,,,-99.99,,2013-03-19 12:42:00,
2013-03-19 08:52:00,28.0,28.0,29.84,North,0,0.0,-999.0,100,-99.99,,,-99.99,,2013-03-19 12:52:00,
2013-03-19 09:02:00,28.0,28.0,29.84,North,0,0.0,-999.0,100,-99.99,,,-99.99,,2013-03-19 13:02:00,
2013-03-19 09:12:00,28.0,28.0,29.83,North,0,0.0,-999.0,100,-99.99,,,-99.99,,2013-03-19 13:12:00,
2013-03-19 09:22:00,30.0,28.0,29.82,NE,40,5.0,-999.0,92,-99.99,,,-99.99,,2013-03-19 13:22:00,
2013-03-19 09:33:00,30.0,28.0,29.82,NE,40,7.0,-999.0,92,-99.99,,,-99.99,,2013-03-19 13:33:00,
2013-03-19 09:42:00,30.0,28.0,29.82,NNE,30,3.0,-999.0,92,-99.99,,,-99.99,,2013-03-19 13:42:00,
2013-03-19 09:52:00,30.0,28.0,29.82,North,0,0.0,-999.0,92,-99.99,,,-99.99,,2013-03-19 13:52:00,
2013-03-19 10:02:00,30.0,28.0,29.82,North,0,0.0,-999.0,92,-99.99,,,-99.99,,2013-03-19 14:02:00,
2013-03-19 10:12:00,30.0,28.0,29.84,NNW,330,7.0,-999.0,92,-99.99,,,-99.99,,2013-03-19 14:12:00,
2013-03-19 10:22:00,30.0,28.0,29.84,North,350,7.0,-999.0,92,-99.99,,,-99.99,,2013-03-19 14:22:00,
2013-03-19 10:32:00,30.0,28.0,29.84,North,350,6.0,-999.0,92,-99.99,,,-99.99,,2013-03-19 14:32:00,
2013-03-19 10:42:00,30.0,28.0,29.85,NNW,340,5.0,-999.0,92,-99.99,,,-99.99,,2013-03-19 14:42:00,
2013-03-19 10:52:00,30.0,28.0,29.84,NNE,30,5.0,-999.0,92,-99.99,,,-99.99,,2013-03-19 14:52:00,
2013-03-19 11:02:00,30.0,28.0,29.84,NNE,30,5.0,-999.0,92,-99.99,,,-99.99,,2013-03-19 15:02:00,
2013-03-19 11:12:00,30.0,28.0,29.84,North,10,6.0,-999.0,92,-99.99,,,-99.99,,2013-03-19 15:12:00,
2013-03-19 11:22:00,30.0,28.0,29.83,NNE,30,3.0,-999.0,92,-99.99,,,-99.99,,2013-03-19 15:22:00,
2013-03-19 11:34:00,30.0,28.0,29.82,NE,50,5.0,-999.0,92,-99.99,,,-99.99,,2013-03-19 15:34:00,
2013-03-19 11:43:00,30.0,28.0,29.82,ENE,60,5.0,-999.0,92,-99.99,,,-99.99,,2013-03-19 15:43:00,
2013-03-19 11:53:00,30.0,30.0,29.82,North,0,0.0,-999.0,100,-99.99,,,-99.99,,2013-03-19 15:53:00,
2013-03-19 12:04:00,30.0,30.0,29.82,North,0,0.0,-999.0,100,-99.99,,,-99.99,,2013-03-19 16:04:00,
2013-03-19 12:13:00,30.0,30.0,29.82,North,0,0.0,-999.0,100,-99.99,,,-99.99,,2013-03-19 16:13:00,
2013-03-19 12:24:00,30.0,30.0,29.82,North,0,0.0,-999.0,100,-99.99,,,-99.99,,2013-03-19 16:24:00,
2013-03-19 12:34:00,30.0,30.0,29.82,North,0,0.0,-999.0,100,-99.99,,,-99.99,,2013-03-19 16:34:00,
2013-03-19 12:44:00,30.0,30.0,29.80,NE,50,3.0,-999.0,100,-99.99,,,-99.99,,2013-03-19 16:44:00,
2013-03-19 12:54:00,32.0,30.0,29.80,North,0,0.0,-999.0,92,-99.99,,,-99.99,,2013-03-19 16:54:00,
2013-03-19 13:03:00,32.0,30.0,29.80,North,0,0.0,-999.0,92,-99.99,,,-99.99,,2013-03-19 17:03:00,
2013-03-19 13:13:00,32.0,30.0,29.78,NNE,30,3.0,-999.0,92,-99.99,,,-99.99,,2013-03-19 17:13:00,
2013-03-19 13:23:00,32.0,30.0,29.77,NNE,30,5.0,-999.0,92,-99.99,,,-99.99,,2013-03-19 17:23:00,
2013-03-19 13:34:00,34.0,30.0,29.78,North,0,0.0,-999.0,86,-99.99,,,-99.99,,2013-03-19 17:34:00,
2013-03-19 13:44:00,34.0,30.0,29.77,North,0,0.0,-999.0,86,-99.99,,,-99.99,,2013-03-19 17:44:00,
2013-03-19 13:53:00,32.0,30.0,29.75,NNE,20,3.0,-999.0,92,-99.99,,,-99.99,,2013-03-19 17:53:00,
2013-03-19 14:03:00,32.0,30.0,29.75,NNE,20,3.0,-999.0,92,-99.99,,,-99.99,,2013-03-19 18:03:00,
2013-03-19 14:13:00,34.0,30.0,29.73,NNE,30,5.0,-999.0,86,-99.99,,,-99.99,,2013-03-19 18:13:00,
2013-03-19 14:23:00,34.0,30.0,29.72,North,0,0.0,-999.0,86,-99.99,,,-99.99,,2013-03-19 18:23:00,
2013-03-19 14:33:00,34.0,32.0,29.72,NNE,30,3.0,-999.0,93,-99.99,,,-99.99,,2013-03-19 18:33:00,
2013-03-19 14:43:00,34.0,32.0,29.72,NE,40,3.0,-999.0,93,-99.99,,,-99.99,,2013-03-19 18:43:00,
2013-03-19 14:53:00,34.0,32.0,29.72,NE,40,3.0,-999.0,93,-99.99,,,-99.99,,2013-03-19 18:53:00,
2013-03-19 15:02:00,34.0,32.0,29.72,NE,40,3.0,-999.0,93,-99.99,,,-99.99,,2013-03-19 19:02:00,
2013-03-19 15:12:00,34.0,30.0,29.72,NNE,20,3.0,-999.0,86,-99.99,,,-99.99,,2013-03-19 19:12:00,
2013-03-19 15:22:00,34.0,32.0,29.72,North,350,3.0,-999.0,93,-99.99,,,-99.99,,2013-03-19 19:22:00,
2013-03-19 15:33:00,34.0,32.0,29.72,NNW,340,5.0,-999.0,93,-99.99,,,-99.99,,2013-03-19 19:33:00,
2013-03-19 15:42:00,34.0,32.0,29.72,North,10,3.0,-999.0,93,-99.99,,,-99.99,,2013-03-19 19:42:00,
2013-03-19 15:52:00,34.0,32.0,29.72,West,280,3.0,-999.0,93,-99.99,,,-99.99,,2013-03-19 19:52:00,
2013-03-19 16:03:00,34.0,32.0,29.72,West,280,3.0,-999.0,93,-99.99,,,-99.99,,2013-03-19 20:03:00,
2013-03-19 16:11:00,34.0,32.0,29.71,North,0,0.0,-999.0,93,-99.99,,,-99.99,,2013-03-19 20:11:00,
2013-03-19 16:22:00,34.0,32.0,29.71,North,0,0.0,-999.0,93,-99.99,,,-99.99,,2013-03-19 20:22:00,
2013-03-19 16:31:00,34.0,32.0,29.71,North,0,0.0,-999.0,93,-99.99,,,-99.99,,2013-03-19 20:31:00,
2013-03-19 16:51:00,34.0,32.0,29.70,North,0,0.0,-999.0,93,-99.99,,,-99.99,,2013-03-19 20:51:00,
2013-03-19 17:02:00,34.0,32.0,29.70,North,0,0.0,-999.0,93,-99.99,,,-99.99,,2013-03-19 21:02:00,
2013-03-19 17:12:00,34.0,32.0,29.71,North,0,0.0,-999.0,93,-99.99,,,-99.99,,2013-03-19 21:12:00,
2013-03-19 17:23:00,34.0,32.0,29.71,North,0,0.0,-999.0,93,-99.99,,,-99.99,,2013-03-19 21:23:00,
2013-03-19 17:34:00,34.0,32.0,29.71,East,80,5.0,-999.0,93,-99.99,,,-99.99,,2013-03-19 21:34:00,
2013-03-19 17:43:00,34.0,32.0,29.70,East,80,6.0,-999.0,93,-99.99,,,-99.99,,2013-03-19 21:43:00,
2013-03-19 17:52:00,34.0,32.0,29.71,ENE,70,3.0,-999.0,93,-99.99,,,-99.99,,2013-03-19 21:52:00,
2013-03-19 18:03:00,34.0,32.0,29.71,ENE,70,3.0,-999.0,93,-99.99,,,-99.99,,2013-03-19 22:03:00,
2013-03-19 18:12:00,34.0,32.0,29.71,North,0,0.0,-999.0,93,-99.99,,,-99.99,,2013-03-19 22:12:00,
2013-03-19 18:22:00,34.0,32.0,29.70,East,80,5.0,-999.0,93,-99.99,,,-99.99,,2013-03-19 22:22:00,
2013-03-19 18:32:00,34.0,32.0,29.70,ENE,60,6.0,-999.0,93,-99.99,,,-99.99,,2013-03-19 22:32:00,
2013-03-19 18:42:00,34.0,32.0,29.71,ENE,70,3.0,-999.0,93,-99.99,,,-99.99,,2013-03-19 22:42:00,
2013-03-19 18:53:00,34.0,32.0,29.71,North,0,0.0,-999.0,93,-99.99,,,-99.99,,2013-03-19 22:53:00,
2013-03-19 19:03:00,34.0,32.0,29.71,North,0,0.0,-999.0,93,-99.99,,,-99.99,,2013-03-19 23:03:00,
2013-03-19 19:11:00,34.0,32.0,29.71,ENE,60,3.0,-999.0,93,-99.99,,,-99.99,,2013-03-19 23:11:00,
2013-03-19 19:21:00,34.0,32.0,29.70,East,80,3.0,-999.0,93,-99.99,,,-99.99,,2013-03-19 23:21:00,
2013-03-19 19:42:00,32.0,32.0,29.70,NE,50,3.0,-999.0,100,-99.99,,,-99.99,,2013-03-19 23:42:00,
2013-03-19 19:51:00,32.0,32.0,29.71,NNE,30,5.0,-999.0,100,-99.99,,,-99.99,,2013-03-19 23:51:00,
2013-03-19 20:03:00,32.0,32.0,29.71,NNE,30,5.0,-999.0,100,-99.99,,,-99.99,,2013-03-20 00:03:00,
2013-03-19 20:11:00,34.0,32.0,29.72,North,0,0.0,-999.0,93,-99.99,,,-99.99,,2013-03-20 00:11:00,
2013-03-19 20:21:00,34.0,32.0,29.74,North,0,0.0,-999.0,93,-99.99,,,-99.99,,2013-03-20 00:21:00,
2013-03-19 20:41:00,32.0,32.0,29.75,West,270,16.0,22.0,100,-99.99,,,-99.99,,2013-03-20 00:41:00,
2013-03-19 20:51:00,32.0,30.0,29.76,WNW,300,18.0,28.0,92,-99.99,,,-99.99,,2013-03-20 00:51:00,
2013-03-19 21:03:00,32.0,30.0,29.76,WNW,300,18.0,28.0,92,-99.99,,,-99.99,,2013-03-20 01:03:00,
2013-03-19 21:11:00,32.0,30.0,29.76,WNW,300,16.0,27.0,92,-99.99,,,-99.99,,2013-03-20 01:11:00,
2013-03-19 21:32:00,30.0,28.0,29.77,WNW,290,10.0,24.0,92,-99.99,,,-99.99,,2013-03-20 01:32:00,
2013-03-19 21:41:00,30.0,28.0,29.77,WNW,300,16.0,24.0,92,-99.99,,,-99.99,,2013-03-20 01:41:00,
2013-03-19 21:52:00,30.0,27.0,29.77,WNW,290,12.0,-999.0,86,-99.99,,,-99.99,,2013-03-20 01:52:00,
2013-03-19 22:02:00,30.0,27.0,29.77,WNW,290,12.0,-999.0,86,-99.99,,,-99.99,,2013-03-20 02:02:00,
2013-03-19 22:11:00,30.0,27.0,29.77,WNW,300,14.0,18.0,86,-99.99,,,-99.99,,2013-03-20 02:11:00,
2013-03-19 22:21:00,30.0,27.0,29.78,WNW,290,10.0,17.0,86,-99.99,,,-99.99,,2013-03-20 02:21:00,
2013-03-19 22:31:00,30.0,27.0,29.77,WNW,300,13.0,20.0,86,-99.99,,,-99.99,,2013-03-20 02:31:00,
2013-03-19 22:41:00,30.0,27.0,29.78,WNW,290,12.0,20.0,86,-99.99,,,-99.99,,2013-03-20 02:41:00,
2013-03-19 22:52:00,28.0,25.0,29.78,WNW,300,9.0,17.0,86,-99.99,,,-99.99,,2013-03-20 02:52:00,
2013-03-19 23:02:00,28.0,25.0,29.78,WNW,300,9.0,-999.0,86,-99.99,,,-99.99,,2013-03-20 03:02:00,
2013-03-19 23:12:00,28.0,25.0,29.79,WNW,290,6.0,-999.0,86,-99.99,,,-99.99,,2013-03-20 03:12:00,
2013-03-19 23:22:00,28.0,25.0,29.79,West,280,7.0,-999.0,86,-99.99,,,-99.99,,2013-03-20 03:22:00,
2013-03-19 23:34:00,28.0,23.0,29.79,West,280,7.0,-999.0,79,-99.99,,,-99.99,,2013-03-20 03:34:00,
2013-03-19 23:42:00,28.0,23.0,29.79,WNW,300,7.0,-999.0,79,-99.99,,,-99.99,,2013-03-20 03:42:00,
2013-03-19 23:53:00,28.0,21.0,29.79,NW,310,3.0,-999.0,74,-99.99,,,-99.99,,2013-03-20 03:53:00,